Lid_Strength_Index
3 3 3 3 4 4 4 4 4 4 4 5 5 5 5 5 5 5 4 4 4 3 3 3 3 3 6 10 9 5 2 4 4 3 3 5 7 6 8 7 7 8 7 7 7 8 8
3 3 3 3 3 3 3 3 3 4 4 5 5 5 5 5 5 5 4 4 4 4 3 3 3 4 8 11 6 5 5 5 5 5 4 4 5 5 7 7 8 6 7 7 7 7 8
2 2 2 2 2 3 3 3 3 3 4 5 5 5 5 5 5 4 4 4 4 3 3 3 3 5 8 9 5 4 5 6 5 6 6 4 3 5 5 8 5 6 9 7 7 7 8
2 2 2 2 2 3 3 3 3 4 4 4 5 5 5 5 5 4 4 4 4 3 3 3 3 5 9 5 4 5 5 5 5 5 5 5 3 4 6 5 7 8 8 12 8 8 8
2 2 2 2 2 2 3 3 3 3 4 4 5 5 5 5 5 4 4 4 3 3 3 3 5 7 9 4 6 4 4 5 5 5 4 3 4 6 6 9 10 10 12 11 10 7 8
2 2 2 2 2 2 3 3 3 3 4 4 5 5 5 5 5 5 4 4 3 2 3 4 5 8 6 6 5 4 4 4 5 5 6 5 6 9 9 10 14 12 12 11 11 9 9
1 1 1 1 2 2 3 3 3 4 3 4 5 5 5 5 5 5 5 6 7 7 6 7 6 7 6 5 3 4 3 5 4 5 9 6 10 14 11 9 8 9 11 11 9 8 9
2 1 1 2 2 3 3 3 3 4 3 4 5 5 5 5 5 5 5 6 6 5 8 6 5 6 5 5 6 5 3 6 7 9 7 9 13 9 8 8 9 10 12 11 9 9 9
2 2 2 2 2 3 3 3 3 4 4 4 5 5 5 5 4 5 6 5 4 4 8 7 6 6 5 5 6 6 4 5 8 9 9 11 10 8 9 9 10 11 14 11 11 9 9
2 2 3 3 3 3 3 3 3 3 4 5 5 5 5 5 6 5 5 3 3 3 10 9 7 5 5 5 8 3 3 5 8 10 9 10 8 10 10 11 9 13 10 10 11 10 13
2 3 3 3 3 3 3 3 3 4 4 5 5 5 5 6 6 6 5 4 3 4 16 8 7 3 4 7 6 6 3 5 9 9 9 11 10 11 12 10 8 11 8 10 10 11 11
2 3 3 3 3 3 3 4 4 4 5 5 5 5 5 5 5 4 4 4 4 11 17 11 7 7 8 7 7 6 6 5 5 9 9 9 7 9 10 8 8 8 9 10 10 10 14
3 3 3 3 3 3 3 4 4 4 5 5 6 5 6 5 5 4 3 5 11 16 9 11 10 8 9 10 9 9 9 9 11 14 13 11 10 8 8 11 9 9 11 16 16 15 15
3 3 3 3 3 3 4 4 4 5 6 6 6 6 5 4 4 4 4 8 15 12 11 7 8 9 12 10 10 10 10 12 9 10 12 14 15 10 8 9 10 10 11 14 18 17 14
3 3 4 4 3 4 4 4 5 6 6 6 7 6 5 5 4 4 7 12 13 11 8 10 9 11 11 10 11 11 11 11 9 9 14 14 14 8 7 7 8 10 12 9 14 13 13
3 3 4 4 4 4 4 4 5 6 6 6 8 7 6 6 4 5 8 12 10 8 7 8 12 10 13 13 12 12 12 9 11 9 7 10 14 9 8 7 7 9 8 13 13 17 16
3 3 4 4 4 4 4 5 6 6 6 7 8 7 6 6 5 8 12 12 10 7 6 9 10 11 11 12 11 11 13 10 9 9 8 9 12 11 9 10 11 10 11 11 12 14 15
3 4 4 4 4 4 4 5 6 6 7 7 9 10 6 6 10 11 12 11 9 8 7 8 8 9 11 10 11 11 13 11 8 8 12 9 11 13 11 8 7 8 10 10 13 16 14
3 3 4 4 3 3 4 5 6 6 7 8 10 10 6 6 14 13 11 11 10 10 9 8 9 8 8 10 12 10 10 8 7 8 11 9 12 13 12 10 8 10 9 9 11 12 14
3 3 4 4 3 3 4 5 6 6 7 8 10 13 10 10 10 12 13 12 12 8 9 8 8 7 9 10 8 11 11 9 9 8 7 8 12 13 14 12 10 11 10 10 10 13 14
3 3 3 4 4 3 4 5 6 7 7 8 10 13 12 14 12 12 12 12 12 12 9 8 8 9 10 12 11 11 11 10 10 7 7 9 13 12 11 11 10 9 10 10 11 11 12
4 4 4 4 4 3 4 5 6 6 7 9 11 12 11 12 12 12 12 12 12 11 11 10 10 10 10 11 10 12 11 12 13 9 10 8 14 12 13 10 10 10 9 9 9 10 10
4 4 4 4 4 4 4 5 6 6 8 10 10 10 11 13 12 13 12 12 12 10 9 8 9 10 11 9 8 9 9 10 10 10 12 10 12 13 15 11 11 13 10 9 9 8 9
4 4 4 4 4 4 4 5 6 6 8 9 10 10 12 14 13 13 12 10 11 10 11 9 8 9 8 7 8 7 8 10 10 9 8 11 12 12 15 13 17 10 8 7 8 8 8
4 4 3 4 4 4 4 5 6 6 7 8 9 10 11 15 12 12 11 11 10 9 10 9 8 7 6 8 10 12 12 12 11 9 9 9 11 14 16 16 13 12 10 11 10 9 8
4 4 4 4 4 4 3 5 6 6 6 8 9 9 10 14 13 11 12 10 11 11 10 9 7 6 6 9 11 15 17 15 15 13 9 9 9 13 15 17 18 13 9 7 8 12 8
3 4 4 4 5 4 5 5 6 6 6 7 9 9 10 14 12 10 12 12 10 10 11 9 9 9 6 10 13 14 16 12 16 16 15 14 13 16 16 16 13 10 8 7 13 14 8
4 4 4 4 5 5 5 5 6 6 6 7 8 8 10 12 12 10 9 10 10 10 11 9 9 9 9 12 13 13 14 13 14 12 14 14 15 14 14 16 17 8 8 13 9 7 7
4 4 4 4 5 5 5 5 6 6 6 6 9 8 8 11 12 8 8 8 8 8 9 8 10 10 8 10 10 11 13 12 13 16 9 15 12 14 13 14 9 7 8 6 6 7 7